Powrót do katalogu

IRIDIUM 47 DEB

AktywnyPO
NORAD 40254·DEBRIS·🇺🇸 United States

Wystrzelony Dec 20, 1997 z Vandenberg Space Force Base

Loading…

Następne Przeloty (najbliższe 24 godziny)

TLE

ŚwieżeSource: Space-Track

Epoka: Sep 14, 2026, 12:10 UTC

1 40254U 97082P   26257.50736694  .00027979  00000-0  33473-2 0  9999
2 40254  85.9882 172.1385 0049391 194.0611 165.9241 14.83137151615691

Śledź IRIDIUM 47 DEB w czasie rzeczywistym z AllMySat

Download on the App Store